Weather History for KEDE - January, 2014

Change the Weather History Date:

Friday, January 17, 2014

  Actual Average (KECG) Record (KECG)
Temperature  
Mean Temperature 44 °F 41 °F  
Max Temperature 54 °F 51 °F 77 °F (1943)
Min Temperature 34 °F 32 °F 6 °F (1977)
Degree Days  
Heating Degree Days 21 24  
Month to date heating degree days 408  
Since 1 July heating degree days 1563  
Cooling Degree Days 0 0  
Month to date cooling degree days 0  
Year to date cooling degree days 0  
Moisture  
Dew Point 34 °F    
Average Humidity 70    
Maximum Humidity 90    
Minimum Humidity 41    
Precipitation  
Precipitation 0.00 in 0.10 in 2.15 in (1946)
Month to date precipitation 1.71  
Year to date precipitation 1.71  
Snow  
Snow 0.00 in - 1.00 in (1976)
Month to date snowfall  
Since 1 July snowfall  
Snow Depth -    
Sea Level Pressure  
Sea Level Pressure 29.99 in    
Wind  
Wind Speed 8 mph (SSW)    
Max Wind Speed 13 mph    
Max Gust Speed 18 mph    
Visibility 10 miles    
Events      
T = Trace of Precipitation, MM = Missing Value Source: NWS Daily Summary

Daily Weather History Graph

Daily Weather History Graph

Search for Another Location

Airport or City:

Trip Planner

Search our weather history database for the weather conditions in past years. The results will help you decide how hot, cold, wet, or windy it might be!

Date:

Astronomy

Jan. 17, 2014 Rise Set
Actual Time 7:15 AM EST 5:17 PM EST
Civil Twilight 6:47 AM EST 5:45 PM EST
Nautical Twilight 6:16 AM EST 6:16 PM EST
Astronomical Twilight 5:45 AM EST 6:47 PM EST
Moon 6:57 PM EST (1/17) 7:46 AM EST (1/17)
Length of Visible Light 10h 57m
Length of Day
10h 01m
Full, 98% of the Moon is Illuminated
Jan 17
Full
Jan 24
Last Quarter
Jan 30
New
Feb 6
First Quarter
Feb 14
Full

Hourly Weather History & Observations

Time (EST) Temp. Windchill Dew Point Humidity Pressure Visibility Wind Dir Wind Speed Gust Speed Precip Events Conditions
12:15 AM 36.1 °F 31.4 °F 33.1 °F 89% 30.05 in 10.0 mi WSW 5.8 mph - N/A   Clear
12:35 AM 36.5 °F 31.8 °F 32.9 °F 87% 30.05 in 10.0 mi WSW 5.8 mph - N/A   Clear
12:55 AM 36.1 °F 30.6 °F 32.9 °F 88% 30.04 in 10.0 mi SW 6.9 mph - N/A   Clear
1:15 AM 36.0 °F 31.1 °F 32.7 °F 88% 30.04 in 10.0 mi SW 5.8 mph - N/A   Clear
1:35 AM 34.9 °F 29.0 °F 32.0 °F 89% 30.05 in 10.0 mi SW 6.9 mph - N/A   Clear
1:55 AM 35.6 °F 30.7 °F 32.2 °F 87% 30.05 in 10.0 mi SW 5.8 mph - N/A   Clear
2:15 AM 35.8 °F 29.4 °F 32.4 °F 87% 30.05 in 10.0 mi SW 8.1 mph - N/A   Clear
2:35 AM 35.8 °F 30.9 °F 32.2 °F 87% 30.04 in 10.0 mi SW 5.8 mph - N/A   Clear
2:55 AM 36.1 °F 30.6 °F 32.4 °F 86% 30.04 in 10.0 mi SW 6.9 mph - N/A   Clear
3:15 AM 36.0 °F 31.1 °F 32.2 °F 86% 30.04 in 10.0 mi SW 5.8 mph - N/A   Clear
3:35 AM 36.1 °F 29.9 °F 32.2 °F 86% 30.05 in 10.0 mi SW 8.1 mph - N/A   Clear
3:55 AM 36.5 °F 30.3 °F 32.5 °F 86% 30.05 in 10.0 mi SW 8.1 mph - N/A   Clear
4:15 AM 36.1 °F 29.9 °F 32.4 °F 86% 30.04 in 10.0 mi SW 8.1 mph - N/A   Clear
4:35 AM 35.8 °F 30.1 °F 32.2 °F 87% 30.04 in 10.0 mi SW 6.9 mph - N/A   Clear
4:55 AM 35.6 °F 28.6 °F 32.0 °F 87% 30.04 in 10.0 mi SSW 9.2 mph - N/A   Clear
5:15 AM 35.6 °F 29.2 °F 32.0 °F 87% 30.04 in 10.0 mi SW 8.1 mph - N/A   Clear
5:35 AM 35.6 °F 29.9 °F 32.0 °F 87% 30.03 in 10.0 mi SW 6.9 mph - N/A   Clear
5:55 AM 35.6 °F 28.6 °F 32.0 °F 87% 30.04 in 10.0 mi SSW 9.2 mph - N/A   Clear
6:15 AM 35.6 °F 29.2 °F 32.0 °F 87% 30.04 in 10.0 mi SSW 8.1 mph - N/A   Clear
6:35 AM 35.2 °F 28.1 °F 31.8 °F 87% 30.05 in 10.0 mi SSW 9.2 mph - N/A   Clear
6:55 AM 34.5 °F 28.6 °F 31.8 °F 90% 30.05 in 10.0 mi SSW 6.9 mph - N/A   Clear
7:15 AM 35.1 °F 28.6 °F 31.8 °F 88% 30.06 in 10.0 mi SSW 8.1 mph - N/A   Clear
7:35 AM 34.9 °F 29.0 °F 31.6 °F 88% 30.06 in 10.0 mi SSW 6.9 mph - N/A   Clear
7:55 AM 36.0 °F 29.6 °F 31.8 °F 85% 30.06 in 10.0 mi SSW 8.1 mph - N/A   Clear
8:15 AM 36.7 °F 31.2 °F 31.6 °F 82% 30.06 in 10.0 mi SSW 6.9 mph - N/A   Clear
8:35 AM 37.9 °F 32.1 °F 31.6 °F 78% 30.06 in 10.0 mi SSW 8.1 mph - N/A   Clear
8:55 AM 39.4 °F 32.7 °F 30.9 °F 72% 30.06 in 10.0 mi SSW 10.4 mph - N/A   Clear
9:15 AM 40.1 °F 33.6 °F 31.3 °F 71% 30.07 in 10.0 mi SSW 10.4 mph - N/A   Clear
9:35 AM 41.2 °F 35.5 °F 31.6 °F 69% 30.07 in 10.0 mi SSW 9.2 mph - N/A   Clear
9:55 AM 41.9 °F 36.3 °F 30.9 °F 65% 30.07 in 10.0 mi SW 9.2 mph - N/A   Clear
10:15 AM 43.2 °F 37.9 °F 31.6 °F 64% 30.07 in 10.0 mi SSW 9.2 mph - N/A   Clear
10:35 AM 43.5 °F 38.3 °F 30.9 °F 61% 30.07 in 10.0 mi SW 9.2 mph - N/A   Clear
10:55 AM 44.8 °F 39.4 °F 30.7 °F 58% 30.07 in 10.0 mi SW 10.4 mph - N/A   Clear
11:15 AM 46.0 °F 41.0 °F 30.6 °F 55% 30.06 in 10.0 mi SSW 10.4 mph - N/A   Clear
11:35 AM 46.9 °F - 30.9 °F 54% 30.05 in 10.0 mi SSW 8.1 mph - N/A   Clear
11:55 AM 48.0 °F - 31.3 °F 52% 30.04 in 10.0 mi SSW 8.1 mph - N/A   Clear
12:15 PM 48.4 °F - 30.7 °F 51% 30.02 in 10.0 mi SSW 9.2 mph - N/A   Clear
12:35 PM 49.6 °F - 32.2 °F 51% 30.01 in 10.0 mi SSW 6.9 mph - N/A   Clear
12:55 PM 50.4 °F - 31.8 °F 49% 29.99 in 10.0 mi SSW 8.1 mph - N/A   Clear
1:15 PM 51.1 °F - 30.7 °F 46% 29.98 in 10.0 mi South 10.4 mph - N/A   Clear
1:35 PM 52.0 °F - 31.3 °F 45% 29.98 in 10.0 mi South 8.1 mph - N/A   Clear
1:55 PM 52.3 °F - 30.9 °F 44% 29.97 in 10.0 mi SSW 12.7 mph - N/A   Clear
2:15 PM 53.1 °F - 30.9 °F 43% 29.96 in 10.0 mi South 10.4 mph - N/A   Clear
2:35 PM 52.9 °F - 31.1 °F 43% 29.95 in 10.0 mi South 11.5 mph - N/A   Clear
2:55 PM 54.0 °F - 31.8 °F 43% 29.95 in 10.0 mi South 12.7 mph 18.4 mph N/A   Clear
3:15 PM 53.8 °F - 30.6 °F 41% 29.94 in 10.0 mi SSW 11.5 mph - N/A   Clear
3:35 PM 53.4 °F - 32.0 °F 44% 29.94 in 10.0 mi South 12.7 mph 17.3 mph N/A   Clear
3:55 PM 52.9 °F - 32.4 °F 46% 29.94 in 10.0 mi South 10.4 mph - N/A   Clear
4:15 PM 51.1 °F - 32.4 °F 49% 29.94 in 10.0 mi South 11.5 mph - N/A   Clear
4:35 PM 50.7 °F - 32.0 °F 49% 29.93 in 10.0 mi South 12.7 mph - N/A   Clear
4:55 PM 50.4 °F - 32.5 °F 50% 29.93 in 10.0 mi SSE 9.2 mph - N/A   Clear
5:15 PM 49.1 °F - 33.3 °F 54% 29.92 in 10.0 mi SSE 10.4 mph - N/A   Clear
5:35 PM 48.6 °F - 33.4 °F 56% 29.93 in 10.0 mi South 10.4 mph - N/A   Clear
5:55 PM 48.4 °F - 34.2 °F 58% 29.92 in 10.0 mi SSE 10.4 mph - N/A   Clear
6:15 PM 48.2 °F - 35.2 °F 61% 29.93 in 10.0 mi South 9.2 mph - N/A   Clear
6:35 PM 48.0 °F - 36.3 °F 64% 29.92 in 10.0 mi South 8.1 mph - N/A   Clear
6:55 PM 47.8 °F - 36.7 °F 65% 29.92 in 10.0 mi South 9.2 mph - N/A   Clear
7:15 PM 47.7 °F - 37.4 °F 68% 29.93 in 10.0 mi South 9.2 mph - N/A   Clear
7:35 PM 48.2 °F - 37.4 °F 66% 29.92 in 10.0 mi South 10.4 mph - N/A   Clear
7:55 PM 48.0 °F - 37.9 °F 68% 29.92 in 10.0 mi South 10.4 mph - N/A   Clear
8:15 PM 47.8 °F - 38.3 °F 70% 29.92 in 10.0 mi South 9.2 mph - N/A   Clear
8:35 PM 47.7 °F - 38.7 °F 71% 29.93 in 10.0 mi South 8.1 mph - N/A   Clear
8:55 PM 47.5 °F - 38.7 °F 71% 29.93 in 10.0 mi South 6.9 mph - N/A   Clear
9:15 PM 47.3 °F - 39.2 °F 73% 29.93 in 10.0 mi South 5.8 mph - N/A   Clear
9:35 PM 46.6 °F - 39.4 °F 76% 29.93 in 10.0 mi South 4.6 mph - N/A   Clear
9:55 PM 46.6 °F - 39.6 °F 77% 29.92 in 10.0 mi South 4.6 mph - N/A   Scattered Clouds
10:15 PM 46.6 °F - 39.6 °F 77% 29.92 in 10.0 mi South 4.6 mph - N/A   Scattered Clouds
10:35 PM 46.8 °F - 39.4 °F 75% 29.92 in 10.0 mi South 3.5 mph - N/A   Mostly Cloudy
10:55 PM 45.9 °F - 39.0 °F 77% 29.91 in 10.0 mi Calm Calm - N/A   Mostly Cloudy
11:15 PM 45.9 °F 44.6 °F 39.6 °F 79% 29.90 in 10.0 mi South 3.5 mph - N/A   Overcast
11:35 PM 46.0 °F 43.9 °F 39.7 °F 79% 29.89 in 10.0 mi South 4.6 mph - N/A   Overcast
11:55 PM 46.4 °F 44.3 °F 39.7 °F 78% 29.87 in 10.0 mi SSE 4.6 mph - N/A   Overcast